QPF
0.00 0.01 0.01 0.01 0.01 0.01 0.01 0.00 0.01 0.00 0.01 0.02 0.02 0.01 0.01 0.01 0.01 0.01 0.01 0.01 0.01 0.01 0.01 0.02 0.03 0.05 0.05 0.03 0.02 0.02 0.03 0.03 0.03 0.05 0.05 0.04 0.04 0.04 0.05 0.04 0.03 0.03 0.03 0.03
0.01 0.01 0.01 0.02 0.01 0.01 0.00 0.00 0.00 0.01 0.02 0.02 0.03 0.02 0.01 0.01 0.02 0.01 0.01 0.01 0.01 0.02 0.02 0.02 0.01 0.02 0.03 0.03 0.03 0.04 0.03 0.03 0.03 0.05 0.05 0.05 0.05 0.07 0.07 0.06 0.04 0.04 0.03 0.02
0.01 0.01 0.01 0.01 0.01 0.00 0.00 0.00 0.01 0.01 0.02 0.02 0.02 0.01 0.01 0.02 0.02 0.02 0.01 0.01 0.02 0.03 0.03 0.02 0.02 0.02 0.02 0.02 0.01 0.01 0.02 0.02 0.03 0.05 0.06 0.06 0.08 0.07 0.06 0.05 0.04 0.04 0.03 0.03
0.01 0.01 0.01 0.00 0.00 0.01 0.01 0.01 0.01 0.01 0.01 0.02 0.02 0.02 0.02 0.02 0.02 0.02 0.02 0.02 0.03 0.04 0.03 0.03 0.03 0.02 0.01 0.01 0.01 0.01 0.01 0.02 0.03 0.04 0.04 0.05 0.04 0.04 0.04 0.03 0.03 0.03 0.03 0.03
0.01 0.01 0.00 0.00 0.00 0.01 0.01 0.02 0.01 0.02 0.02 0.02 0.02 0.02 0.02 0.02 0.03 0.03 0.02 0.02 0.02 0.02 0.02 0.02 0.02 0.02 0.02 0.02 0.02 0.02 0.02 0.02 0.03 0.03 0.02 0.03 0.02 0.01 0.02 0.02 0.02 0.02 0.03 0.03
0.00 0.00 0.00 0.00 0.00 0.01 0.01 0.03 0.02 0.02 0.02 0.02 0.02 0.03 0.02 0.02 0.02 0.02 0.02 0.02 0.02 0.02 0.02 0.02 0.02 0.02 0.02 0.02 0.02 0.02 0.02 0.02 0.02 0.02 0.02 0.01 0.01 0.01 0.02 0.02 0.02 0.02 0.03 0.03
0.00 0.00 0.00 0.00 0.01 0.01 0.02 0.03 0.05 0.05 0.04 0.03 0.03 0.03 0.03 0.02 0.02 0.03 0.02 0.02 0.03 0.02 0.02 0.02 0.02 0.01 0.01 0.01 0.02 0.03 0.02 0.02 0.02 0.02 0.02 0.02 0.02 0.02 0.02 0.03 0.03 0.02 0.02 0.02
0.01 0.01 0.01 0.01 0.01 0.01 0.01 0.03 0.06 0.04 0.04 0.03 0.03 0.02 0.02 0.02 0.03 0.03 0.02 0.03 0.03 0.03 0.02 0.02 0.02 0.01 0.01 0.01 0.02 0.02 0.02 0.02 0.03 0.03 0.03 0.03 0.02 0.02 0.03 0.03 0.02 0.02 0.02 0.02
0.02 0.02 0.02 0.02 0.02 0.02 0.02 0.03 0.03 0.02 0.03 0.03 0.02 0.02 0.02 0.02 0.02 0.03 0.02 0.02 0.02 0.02 0.02 0.01 0.01 0.01 0.01 0.01 0.01 0.02 0.02 0.02 0.03 0.03 0.03 0.02 0.03 0.02 0.02 0.02 0.02 0.02 0.02 0.02
0.01 0.02 0.02 0.02 0.02 0.03 0.02 0.02 0.02 0.01 0.02 0.02 0.03 0.02 0.02 0.02 0.02 0.02 0.01 0.01 0.01 0.01 0.02 0.02 0.01 0.01 0.01 0.01 0.02 0.02 0.03 0.03 0.02 0.02 0.02 0.03 0.03 0.03 0.02 0.02 0.03 0.03 0.03 0.02
0.01 0.01 0.02 0.02 0.02 0.02 0.02 0.01 0.01 0.01 0.01 0.02 0.03 0.03 0.02 0.01 0.01 0.01 0.01 0.01 0.01 0.01 0.01 0.02 0.03 0.03 0.02 0.02 0.02 0.03 0.02 0.03 0.03 0.03 0.02 0.03 0.03 0.03 0.03 0.03 0.04 0.04 0.03 0.02
0.01 0.01 0.01 0.02 0.02 0.02 0.02 0.02 0.02 0.01 0.01 0.01 0.01 0.01 0.01 0.01 0.01 0.01 0.01 0.01 0.01 0.01 0.01 0.01 0.02 0.02 0.01 0.01 0.02 0.03 0.04 0.04 0.04 0.04 0.03 0.03 0.02 0.02 0.03 0.03 0.04 0.04 0.03 0.02
0.01 0.01 0.01 0.01 0.01 0.02 0.02 0.03 0.03 0.02 0.02 0.02 0.01 0.01 0.01 0.01 0.01 0.01 0.00 0.00 0.00 0.00 0.00 0.00 0.01 0.02 0.01 0.01 0.01 0.02 0.02 0.02 0.02 0.03 0.03 0.03 0.02 0.03 0.02 0.03 0.04 0.04 0.03 0.02
0.01 0.01 0.01 0.02 0.02 0.02 0.03 0.04 0.03 0.03 0.02 0.02 0.01 0.01 0.01 0.01 0.01 0.00 0.00 0.00 0.00 0.00 0.00 0.00 0.01 0.02 0.02 0.02 0.02 0.02 0.01 0.01 0.01 0.01 0.02 0.03 0.03 0.04 0.04 0.04 0.05 0.05 0.04 0.03
0.01 0.02 0.02 0.03 0.05 0.04 0.06 0.06 0.04 0.03 0.03 0.02 0.02 0.01 0.01 0.01 0.01 0.01 0.01 0.01 0.01 0.01 0.01 0.00 0.00 0.01 0.01 0.02 0.02 0.02 0.01 0.01 0.01 0.01 0.01 0.02 0.02 0.03 0.06 0.06 0.07 0.09 0.08 0.06
0.02 0.02 0.02 0.03 0.05 0.05 0.06 0.05 0.04 0.03 0.02 0.02 0.01 0.01 0.01 0.01 0.00 0.01 0.01 0.01 0.01 0.01 0.01 0.01 0.01 0.01 0.01 0.01 0.01 0.01 0.01 0.01 0.01 0.01 0.01 0.01 0.02 0.03 0.03 0.05 0.07 0.07 0.07 0.06
0.04 0.03 0.02 0.02 0.04 0.06 0.05 0.03 0.03 0.02 0.02 0.01 0.01 0.01 0.01 0.01 0.01 0.01 0.01 0.01 0.01 0.01 0.01 0.01 0.01 0.02 0.02 0.02 0.01 0.01 0.00 0.01 0.01 0.01 0.01 0.01 0.02 0.02 0.02 0.02 0.02 0.03 0.04 0.04
0.04 0.03 0.02 0.02 0.03 0.03 0.04 0.03 0.03 0.02 0.01 0.01 0.00 0.01 0.01 0.02 0.01 0.02 0.01 0.01 0.01 0.01 0.01 0.01 0.01 0.02 0.02 0.01 0.01 0.01 0.01 0.02 0.01 0.02 0.02 0.02 0.02 0.02 0.02 0.02 0.02 0.02 0.02 0.03
0.02 0.02 0.03 0.04 0.03 0.03 0.03 0.02 0.02 0.01 0.01 0.01 0.01 0.01 0.02 0.02 0.01 0.01 0.01 0.01 0.01 0.01 0.01 0.01 0.00 0.00 0.00 0.00 0.01 0.02 0.02 0.02 0.03 0.03 0.03 0.03 0.03 0.03 0.03 0.02 0.02 0.02 0.03 0.03
0.02 0.02 0.02 0.03 0.03 0.02 0.02 0.02 0.02 0.02 0.01 0.01 0.01 0.01 0.01 0.00 0.00 0.00 0.00 0.00 0.00 0.00 0.00 0.00 0.00 0.00 0.00 0.00 0.00 0.02 0.04 0.03 0.03 0.04 0.04 0.03 0.03 0.04 0.03 0.03 0.03 0.04 0.04 0.04
0.01 0.02 0.02 0.02 0.02 0.02 0.02 0.02 0.01 0.01 0.02 0.02 0.02 0.01 0.00 0.00 0.00 0.00 0.00 0.00 0.00 0.00 0.00 0.00 0.00 0.00 0.00 0.00 0.00 0.01 0.02 0.04 0.03 0.04 0.05 0.04 0.04 0.04 0.05 0.04 0.04 0.04 0.04 0.03
0.01 0.02 0.02 0.02 0.02 0.02 0.02 0.02 0.02 0.02 0.02 0.02 0.02 0.02 0.01 0.01 0.00 0.00 0.00 0.00 0.00 0.00 0.00 0.00 0.00 0.00 0.00 0.00 0.01 0.01 0.01 0.02 0.05 0.05 0.05 0.05 0.05 0.09 0.09 0.07 0.07 0.06 0.05 0.03
0.02 0.02 0.02 0.02 0.02 0.02 0.02 0.02 0.03 0.03 0.02 0.02 0.02 0.01 0.01 0.01 0.01 0.01 0.00 0.00 0.00 0.00 0.00 0.00 0.00 0.01 0.01 0.01 0.01 0.01 0.01 0.01 0.02 0.04 0.06 0.07 0.07 0.09 0.11 0.11 0.11 0.10 0.09 0.07
0.03 0.02 0.02 0.02 0.02 0.02 0.02 0.03 0.03 0.03 0.02 0.02 0.02 0.01 0.01 0.02 0.01 0.01 0.01 0.00 0.00 0.00 0.00 0.01 0.01 0.01 0.01 0.00 0.01 0.01 0.01 0.01 0.01 0.01 0.03 0.06 0.08 0.10 0.11 0.12 0.13 0.12 0.11 0.09
0.03 0.02 0.03 0.03 0.02 0.02 0.02 0.02 0.02 0.02 0.02 0.02 0.02 0.02 0.02 0.03 0.03 0.02 0.01 0.01 0.01 0.01 0.01 0.01 0.01 0.01 0.01 0.01 0.01 0.01 0.01 0.01 0.01 0.00 0.00 0.02 0.05 0.06 0.09 0.11 0.12 0.10 0.09 0.07
0.02 0.02 0.02 0.02 0.03 0.02 0.02 0.01 0.01 0.01 0.02 0.02 0.02 0.02 0.02 0.02 0.02 0.02 0.01 0.01 0.01 0.01 0.01 0.01 0.01 0.01 0.01 0.01 0.01 0.01 0.01 0.01 0.00 0.00 0.00 0.01 0.02 0.04 0.06 0.07 0.08 0.06 0.04 0.03
0.02 0.02 0.01 0.02 0.02 0.02 0.02 0.01 0.01 0.01 0.02 0.02 0.02 0.03 0.03 0.03 0.02 0.01 0.01 0.01 0.01 0.01 0.01 0.01 0.01 0.01 0.01 0.01 0.01 0.01 0.01 0.01 0.01 0.00 0.00 0.01 0.02 0.04 0.06 0.06 0.04 0.03 0.02 0.02
MSLP
1014.18 1014.64 1015.13 1015.60 1016.02 1016.33 1016.49 1016.47 1016.27 1015.90 1015.40 1014.83 1014.26 1013.74 1013.31 1012.99 1012.78 1012.63 1012.50 1012.33 1012.09 1011.75 1011.30 1010.77 1010.20 1009.64 1009.13 1008.71 1008.41 1008.21 1008.09 1008.01 1007.93 1007.81 1007.61 1007.33 1006.97 1006.56 1006.13 1005.72 1005.35 1005.05 1004.82 1004.66
1014.44 1014.79 1015.12 1015.39 1015.60 1015.72 1015.74 1015.64 1015.44 1015.16 1014.83 1014.50 1014.19 1013.94 1013.77 1013.66 1013.60 1013.55 1013.46 1013.31 1013.07 1012.72 1012.28 1011.77 1011.25 1010.74 1010.28 1009.91 1009.63 1009.41 1009.24 1009.08 1008.88 1008.62 1008.27 1007.83 1007.33 1006.79 1006.24 1005.72 1005.26 1004.88 1004.56 1004.32
1014.78 1015.01 1015.18 1015.28 1015.30 1015.26 1015.15 1015.00 1014.82 1014.63 1014.45 1014.31 1014.24 1014.21 1014.24 1014.30 1014.35 1014.37 1014.33 1014.18 1013.93 1013.58 1013.16 1012.69 1012.21 1011.75 1011.36 1011.02 1010.75 1010.52 1010.30 1010.05 1009.74 1009.35 1008.88 1008.33 1007.72 1007.09 1006.48 1005.90 1005.39 1004.95 1004.59 1004.28
1015.11 1015.23 1015.25 1015.19 1015.07 1014.90 1014.71 1014.53 1014.38 1014.27 1014.24 1014.27 1014.37 1014.53 1014.71 1014.89 1015.03 1015.09 1015.06 1014.92 1014.66 1014.32 1013.91 1013.48 1013.04 1012.64 1012.28 1011.97 1011.70 1011.44 1011.16 1010.84 1010.44 1009.96 1009.41 1008.79 1008.14 1007.48 1006.85 1006.28 1005.77 1005.32 1004.94 1004.59
1015.33 1015.33 1015.23 1015.05 1014.82 1014.58 1014.35 1014.17 1014.07 1014.05 1014.14 1014.31 1014.56 1014.85 1015.15 1015.41 1015.60 1015.69 1015.67 1015.53 1015.28 1014.94 1014.56 1014.15 1013.75 1013.38 1013.05 1012.75 1012.47 1012.17 1011.84 1011.45 1010.99 1010.46 1009.87 1009.24 1008.60 1007.98 1007.40 1006.88 1006.42 1006.01 1005.63 1005.26
1015.34 1015.24 1015.04 1014.78 1014.50 1014.23 1014.01 1013.87 1013.84 1013.92 1014.12 1014.41 1014.77 1015.16 1015.54 1015.86 1016.09 1016.20 1016.19 1016.05 1015.81 1015.49 1015.13 1014.75 1014.38 1014.03 1013.71 1013.41 1013.10 1012.77 1012.40 1011.97 1011.47 1010.92 1010.34 1009.74 1009.16 1008.62 1008.13 1007.70 1007.32 1006.96 1006.60 1006.21
1015.10 1014.91 1014.65 1014.36 1014.07 1013.82 1013.65 1013.59 1013.65 1013.84 1014.15 1014.54 1014.99 1015.46 1015.89 1016.25 1016.51 1016.64 1016.64 1016.52 1016.30 1016.00 1015.67 1015.32 1014.97 1014.64 1014.33 1014.02 1013.69 1013.33 1012.93 1012.48 1011.98 1011.45 1010.90 1010.37 1009.88 1009.44 1009.05 1008.72 1008.42 1008.11 1007.77 1007.36
1014.60 1014.36 1014.08 1013.80 1013.56 1013.39 1013.31 1013.36 1013.54 1013.83 1014.24 1014.72 1015.25 1015.76 1016.24 1016.62 1016.90 1017.05 1017.07 1016.97 1016.78 1016.52 1016.22 1015.90 1015.59 1015.28 1014.98 1014.66 1014.33 1013.96 1013.55 1013.10 1012.61 1012.12 1011.63 1011.17 1010.76 1010.41 1010.12 1009.87 1009.62 1009.35 1009.00 1008.55
1013.93 1013.67 1013.42 1013.20 1013.05 1012.99 1013.04 1013.22 1013.52 1013.92 1014.42 1014.97 1015.55 1016.10 1016.59 1017.00 1017.29 1017.45 1017.50 1017.43 1017.28 1017.06 1016.81 1016.54 1016.27 1015.99 1015.70 1015.40 1015.08 1014.71 1014.31 1013.88 1013.43 1012.97 1012.53 1012.14 1011.79 1011.50 1011.26 1011.04 1010.81 1010.54 1010.16 1009.67
1013.20 1012.97 1012.78 1012.66 1012.63 1012.72 1012.91 1013.22 1013.64 1014.15 1014.72 1015.32 1015.92 1016.49 1016.99 1017.39 1017.69 1017.87 1017.95 1017.92 1017.82 1017.66 1017.46 1017.24 1017.01 1016.77 1016.52 1016.25 1015.95 1015.61 1015.23 1014.83 1014.41 1013.99 1013.58 1013.22 1012.90 1012.63 1012.38 1012.15 1011.89 1011.57 1011.14 1010.58
1012.52 1012.36 1012.27 1012.28 1012.40 1012.63 1012.97 1013.41 1013.93 1014.52 1015.14 1015.77 1016.38 1016.94 1017.42 1017.82 1018.12 1018.32 1018.42 1018.43 1018.38 1018.28 1018.14 1017.98 1017.81 1017.62 1017.41 1017.17 1016.91 1016.60 1016.26 1015.88 1015.49 1015.09 1014.71 1014.34 1014.00 1013.69 1013.40 1013.10 1012.76 1012.36 1011.87 1011.25
1011.99 1011.93 1011.97 1012.12 1012.39 1012.77 1013.24 1013.78 1014.38 1015.01 1015.66 1016.29 1016.88 1017.42 1017.89 1018.27 1018.57 1018.78 1018.90 1018.96 1018.96 1018.92 1018.84 1018.74 1018.62 1018.48 1018.31 1018.11 1017.88 1017.61 1017.30 1016.96 1016.59 1016.19 1015.80 1015.40 1015.01 1014.63 1014.24 1013.84 1013.41 1012.92 1012.34 1011.68
1011.64 1011.70 1011.88 1012.18 1012.58 1013.08 1013.65 1014.27 1014.92 1015.58 1016.22 1016.83 1017.39 1017.90 1018.34 1018.71 1019.01 1019.23 1019.39 1019.49 1019.53 1019.54 1019.51 1019.46 1019.39 1019.29 1019.16 1019.00 1018.80 1018.56 1018.28 1017.96 1017.60 1017.20 1016.78 1016.34 1015.88 1015.41 1014.92 1014.41 1013.87 1013.29 1012.65 1011.95
1011.46 1011.65 1011.96 1012.39 1012.91 1013.50 1014.15 1014.81 1015.48 1016.13 1016.76 1017.34 1017.87 1018.34 1018.76 1019.12 1019.42 1019.67 1019.86 1019.99 1020.08 1020.14 1020.15 1020.13 1020.09 1020.01 1019.91 1019.77 1019.60 1019.38 1019.12 1018.81 1018.46 1018.06 1017.61 1017.13 1016.61 1016.06 1015.48 1014.87 1014.24 1013.59 1012.91 1012.20
1011.40 1011.71 1012.14 1012.67 1013.28 1013.95 1014.63 1015.32 1015.99 1016.62 1017.22 1017.77 1018.27 1018.72 1019.13 1019.49 1019.81 1020.08 1020.30 1020.48 1020.60 1020.69 1020.73 1020.73 1020.70 1020.63 1020.53 1020.40 1020.23 1020.03 1019.79 1019.49 1019.15 1018.75 1018.30 1017.79 1017.23 1016.63 1015.98 1015.31 1014.62 1013.93 1013.23 1012.53
1011.38 1011.80 1012.34 1012.96 1013.64 1014.34 1015.05 1015.74 1016.40 1017.01 1017.58 1018.10 1018.58 1019.03 1019.44 1019.82 1020.16 1020.46 1020.72 1020.92 1021.08 1021.18 1021.24 1021.24 1021.20 1021.13 1021.02 1020.88 1020.71 1020.52 1020.28 1020.01 1019.69 1019.31 1018.87 1018.37 1017.80 1017.18 1016.52 1015.82 1015.11 1014.40 1013.70 1013.03
1011.36 1011.88 1012.50 1013.19 1013.91 1014.65 1015.37 1016.05 1016.69 1017.28 1017.83 1018.34 1018.81 1019.26 1019.69 1020.09 1020.46 1020.80 1021.09 1021.33 1021.50 1021.61 1021.66 1021.66 1021.60 1021.50 1021.37 1021.22 1021.05 1020.85 1020.64 1020.39 1020.10 1019.76 1019.36 1018.90 1018.37 1017.77 1017.13 1016.45 1015.75 1015.05 1014.37 1013.72
1011.31 1011.92 1012.61 1013.36 1014.12 1014.87 1015.59 1016.26 1016.89 1017.47 1018.00 1018.51 1018.99 1019.45 1019.90 1020.32 1020.73 1021.09 1021.41 1021.66 1021.84 1021.95 1021.99 1021.97 1021.88 1021.76 1021.61 1021.44 1021.26 1021.07 1020.88 1020.67 1020.43 1020.14 1019.81 1019.41 1018.95 1018.41 1017.82 1017.18 1016.52 1015.85 1015.19 1014.57
1011.25 1011.93 1012.69 1013.48 1014.26 1015.03 1015.75 1016.42 1017.04 1017.60 1018.13 1018.64 1019.12 1019.59 1020.06 1020.50 1020.92 1021.30 1021.63 1021.89 1022.07 1022.17 1022.19 1022.14 1022.04 1021.89 1021.72 1021.54 1021.36 1021.19 1021.03 1020.86 1020.68 1020.47 1020.21 1019.90 1019.51 1019.06 1018.54 1017.97 1017.35 1016.72 1016.09 1015.48
1011.19 1011.95 1012.76 1013.58 1014.40 1015.17 1015.89 1016.56 1017.17 1017.72 1018.25 1018.74 1019.23 1019.70 1020.16 1020.61 1021.03 1021.40 1021.72 1021.97 1022.14 1022.22 1022.23 1022.16 1022.04 1021.89 1021.72 1021.54 1021.38 1021.24 1021.11 1020.99 1020.87 1020.73 1020.56 1020.32 1020.02 1019.65 1019.21 1018.70 1018.14 1017.55 1016.95 1016.35
1011.19 1012.01 1012.86 1013.72 1014.54 1015.32 1016.04 1016.70 1017.29 1017.84 1018.34 1018.83 1019.29 1019.74 1020.19 1020.61 1021.01 1021.36 1021.66 1021.89 1022.04 1022.10 1022.10 1022.03 1021.91 1021.76 1021.60 1021.44 1021.31 1021.20 1021.12 1021.05 1020.98 1020.91 1020.80 1020.63 1020.41 1020.11 1019.73 1019.29 1018.78 1018.23 1017.65 1017.06
1011.26 1012.13 1013.01 1013.89 1014.72 1015.49 1016.20 1016.83 1017.41 1017.93 1018.41 1018.86 1019.29 1019.71 1020.11 1020.50 1020.85 1021.17 1021.43 1021.63 1021.75 1021.81 1021.80 1021.74 1021.64 1021.51 1021.38 1021.26 1021.16 1021.09 1021.05 1021.02 1021.00 1020.97 1020.90 1020.79 1020.62 1020.37 1020.05 1019.65 1019.19 1018.68 1018.13 1017.56
1011.42 1012.31 1013.21 1014.08 1014.90 1015.65 1016.33 1016.94 1017.48 1017.96 1018.40 1018.81 1019.20 1019.57 1019.92 1020.25 1020.55 1020.82 1021.05 1021.21 1021.32 1021.38 1021.38 1021.33 1021.26 1021.17 1021.08 1021.01 1020.95 1020.92 1020.90 1020.91 1020.91 1020.90 1020.86 1020.77 1020.62 1020.41 1020.12 1019.77 1019.35 1018.88 1018.37 1017.83
1011.63 1012.53 1013.41 1014.26 1015.04 1015.76 1016.40 1016.96 1017.46 1017.91 1018.30 1018.66 1019.00 1019.31 1019.61 1019.89 1020.14 1020.36 1020.55 1020.70 1020.79 1020.85 1020.87 1020.86 1020.83 1020.78 1020.74 1020.71 1020.69 1020.68 1020.69 1020.70 1020.71 1020.70 1020.66 1020.57 1020.42 1020.22 1019.96 1019.63 1019.25 1018.83 1018.37 1017.88
1011.88 1012.74 1013.59 1014.38 1015.12 1015.78 1016.36 1016.88 1017.33 1017.73 1018.08 1018.40 1018.69 1018.96 1019.21 1019.45 1019.66 1019.85 1020.01 1020.14 1020.24 1020.30 1020.35 1020.37 1020.38 1020.38 1020.38 1020.38 1020.39 1020.40 1020.41 1020.41 1020.40 1020.37 1020.30 1020.20 1020.04 1019.84 1019.58 1019.29 1018.95 1018.57 1018.17 1017.76
1012.09 1012.91 1013.69 1014.41 1015.08 1015.67 1016.20 1016.67 1017.08 1017.43 1017.75 1018.04 1018.30 1018.54 1018.76 1018.97 1019.16 1019.32 1019.47 1019.60 1019.70 1019.78 1019.85 1019.90 1019.94 1019.98 1020.01 1020.03 1020.05 1020.05 1020.05 1020.03 1019.98 1019.91 1019.81 1019.67 1019.49 1019.28 1019.04 1018.76 1018.47 1018.15 1017.83 1017.49
1012.24 1012.98 1013.68 1014.32 1014.91 1015.43 1015.90 1016.32 1016.70 1017.03 1017.34 1017.61 1017.86 1018.09 1018.31 1018.50 1018.68 1018.84 1018.99 1019.11 1019.22 1019.31 1019.40 1019.47 1019.52 1019.57 1019.61 1019.63 1019.64 1019.62 1019.59 1019.53 1019.44 1019.32 1019.17 1019.00 1018.80 1018.58 1018.35 1018.10 1017.85 1017.60 1017.35 1017.09
Thickness
5755 5763 5764 5765 5764 5760 5756 5750 5743 5751 5753 5765 5773 5776 5778 5777 5776 5774 5773 5773 5773 5771 5770 5769 5768 5766 5764 5762 5760 5758 5753 5750 5747 5744 5741 5738 5734 5731 5727 5723 5720 5717 5714 5711
5749 5759 5761 5760 5763 5762 5760 5756 5754 5754 5756 5771 5774 5774 5773 5773 5772 5769 5769 5769 5769 5767 5765 5763 5761 5760 5758 5755 5753 5751 5747 5744 5741 5738 5734 5731 5728 5724 5720 5718 5714 5711 5708 5705
5730 5744 5750 5741 5755 5758 5758 5761 5758 5752 5761 5768 5767 5767 5768 5769 5768 5766 5766 5765 5763 5762 5760 5758 5755 5753 5751 5749 5747 5743 5740 5738 5734 5731 5727 5724 5721 5717 5713 5710 5708 5704 5702 5699
5719 5730 5719 5744 5766 5766 5761 5762 5764 5765 5767 5769 5768 5767 5767 5768 5765 5763 5763 5761 5759 5757 5755 5752 5750 5747 5745 5743 5740 5736 5733 5731 5728 5725 5722 5718 5714 5710 5707 5703 5700 5697 5694 5693
5708 5711 5722 5745 5760 5761 5754 5755 5766 5764 5764 5764 5764 5761 5760 5764 5764 5762 5760 5758 5755 5752 5750 5746 5743 5740 5738 5735 5733 5730 5726 5724 5722 5719 5716 5712 5708 5704 5700 5696 5693 5690 5687 5686
5706 5708 5710 5739 5763 5768 5759 5746 5765 5764 5760 5758 5758 5745 5749 5758 5759 5757 5755 5752 5750 5747 5743 5739 5735 5733 5730 5727 5724 5722 5720 5717 5715 5712 5708 5705 5701 5698 5694 5690 5686 5683 5681 5679
5705 5708 5720 5748 5760 5762 5737 5744 5765 5763 5760 5757 5753 5751 5753 5754 5751 5750 5748 5746 5743 5740 5735 5732 5729 5726 5722 5719 5716 5715 5713 5710 5708 5704 5701 5697 5694 5691 5687 5683 5679 5675 5673 5671
5699 5704 5716 5750 5752 5747 5749 5761 5761 5760 5758 5754 5749 5749 5748 5746 5743 5742 5740 5738 5735 5732 5728 5725 5722 5718 5714 5711 5710 5708 5705 5702 5699 5696 5693 5690 5686 5683 5679 5675 5671 5667 5664 5661
5712 5718 5735 5743 5748 5755 5756 5755 5756 5755 5754 5750 5745 5742 5741 5738 5736 5734 5732 5729 5727 5724 5719 5716 5714 5711 5707 5704 5702 5700 5696 5693 5690 5687 5684 5681 5678 5674 5670 5666 5663 5659 5656 5653
5711 5723 5732 5739 5745 5750 5753 5753 5755 5754 5750 5746 5740 5737 5734 5731 5729 5726 5724 5721 5718 5714 5711 5707 5705 5703 5700 5697 5695 5691 5687 5684 5680 5677 5674 5671 5668 5665 5661 5658 5654 5651 5648 5646
5705 5717 5725 5733 5738 5743 5746 5748 5748 5746 5744 5740 5735 5731 5728 5724 5721 5719 5716 5712 5709 5705 5702 5700 5697 5694 5691 5688 5685 5681 5678 5674 5672 5669 5666 5662 5659 5656 5653 5650 5646 5643 5641 5638
5702 5714 5715 5722 5732 5736 5737 5737 5737 5735 5732 5731 5729 5724 5721 5716 5713 5710 5707 5704 5700 5697 5693 5691 5688 5685 5682 5680 5677 5673 5669 5666 5662 5659 5656 5653 5650 5647 5644 5642 5639 5636 5633 5630
5709 5716 5716 5721 5725 5728 5728 5728 5729 5727 5725 5721 5720 5717 5714 5709 5705 5701 5698 5695 5692 5689 5685 5682 5680 5677 5674 5671 5668 5665 5661 5657 5654 5651 5648 5644 5641 5639 5636 5634 5631 5629 5626 5623
5708 5710 5709 5713 5716 5719 5720 5719 5719 5717 5715 5714 5711 5708 5705 5701 5697 5694 5690 5687 5685 5681 5677 5674 5671 5668 5666 5662 5659 5656 5652 5650 5646 5643 5639 5636 5634 5631 5628 5626 5624 5622 5619 5617
5702 5705 5705 5708 5708 5709 5709 5709 5706 5704 5703 5701 5701 5699 5696 5692 5689 5686 5682 5679 5676 5672 5668 5665 5662 5659 5656 5653 5651 5648 5644 5641 5638 5635 5632 5628 5625 5622 5620 5617 5615 5613 5611 5610
5694 5697 5698 5698 5698 5699 5699 5698 5696 5695 5694 5692 5690 5689 5687 5684 5681 5677 5673 5670 5666 5662 5659 5655 5652 5650 5647 5644 5642 5639 5636 5634 5630 5627 5623 5620 5617 5614 5611 5609 5607 5605 5603 5602
5684 5685 5687 5688 5689 5689 5689 5690 5689 5688 5686 5684 5682 5680 5677 5674 5670 5666 5663 5660 5657 5654 5651 5647 5645 5642 5639 5635 5632 5630 5627 5624 5622 5619 5615 5612 5609 5606 5604 5601 5600 5598 5596 5594
5684 5686 5686 5685 5683 5682 5681 5682 5681 5680 5678 5677 5674 5671 5667 5664 5660 5657 5654 5651 5648 5645 5642 5640 5637 5634 5630 5626 5623 5621 5618 5615 5613 5610 5607 5604 5602 5599 5597 5595 5593 5591 5590 5588
5677 5678 5678 5678 5678 5677 5676 5674 5673 5671 5670 5668 5665 5662 5659 5656 5653 5650 5646 5642 5639 5636 5634 5632 5629 5626 5621 5618 5616 5613 5610 5607 5605 5602 5599 5597 5594 5592 5590 5587 5586 5584 5583 5581
5669 5671 5671 5670 5670 5669 5668 5667 5665 5663 5661 5660 5657 5654 5650 5647 5645 5641 5638 5635 5632 5630 5628 5625 5621 5618 5615 5612 5609 5606 5603 5600 5598 5594 5592 5589 5587 5585 5583 5581 5579 5578 5576 5574
5660 5662 5662 5661 5661 5661 5660 5659 5657 5655 5653 5651 5649 5646 5643 5640 5637 5633 5630 5628 5627 5624 5621 5618 5614 5611 5608 5605 5602 5599 5596 5593 5590 5587 5584 5582 5580 5578 5576 5574 5572 5571 5569 5567
5652 5653 5653 5653 5652 5652 5651 5651 5650 5648 5646 5643 5640 5638 5634 5631 5628 5626 5623 5622 5621 5618 5614 5611 5608 5605 5602 5599 5596 5592 5589 5586 5583 5580 5577 5575 5573 5571 5569 5567 5566 5564 5562 5560
5644 5644 5645 5645 5644 5643 5642 5641 5641 5639 5637 5635 5632 5630 5627 5624 5622 5619 5616 5616 5614 5611 5608 5605 5603 5600 5597 5593 5590 5587 5584 5580 5577 5574 5571 5569 5566 5564 5562 5560 5559 5557 5555 5554
5636 5637 5637 5636 5635 5633 5632 5632 5631 5630 5628 5626 5624 5623 5620 5617 5614 5613 5612 5610 5608 5605 5603 5600 5597 5594 5591 5588 5584 5581 5578 5574 5571 5568 5565 5563 5561 5558 5556 5554 5552 5550 5548 5546
5628 5628 5628 5627 5626 5625 5624 5622 5621 5620 5619 5618 5617 5615 5614 5612 5610 5608 5606 5604 5602 5599 5597 5594 5591 5588 5585 5582 5579 5575 5572 5568 5565 5562 5560 5557 5555 5553 5551 5548 5546 5544 5542 5540
5620 5620 5620 5619 5619 5618 5617 5615 5614 5613 5612 5611 5610 5609 5607 5606 5604 5601 5599 5598 5596 5593 5591 5588 5585 5582 5579 5576 5573 5570 5567 5563 5560 5557 5555 5552 5550 5548 5546 5544 5541 5539 5537 5535
5612 5612 5612 5612 5612 5611 5611 5609 5608 5607 5606 5605 5604 5602 5601 5599 5597 5595 5593 5591 5589 5587 5584 5582 5579 5576 5573 5570 5567 5564 5561 5558 5556 5553 5550 5548 5545 5543 5541 5538 5536 5533 5531 5528